Weather in Kzyl-Chishma

Russia / Chuvash Republic     54°59′40″N   47°48′18″E
temp.,
°C
wind,
m/s
gust,
m/s
humid.,
%
clouds,
%
prec.,
mm/h
press.,
hPa
HPBL,
m
28 june, tue
tue2800:00+15n410950 0.0 1015274
03:00+12ne49950 0.0 1016264
06:00+11ne47820 0.0 1017408
09:00+14nne56620 0.0 10181144
12:00+17n675220 0.0 10181974
15:00+16nne575598 0.0 10191619
18:00+15nne47615 0.0 10191067
21:00+11nnw22719 0.0 102020
29 june, wed
wed2900:00+11n24715 0.0 1020118
03:00+8nnw34785 0.0 102156
06:00+11nnw357226 0.0 1022208
09:00+15nnw57575 0.0 1020960
12:00+17nnw67485 0.0 10201763
15:00+18nnw574727 0.0 10181931
18:00+17nw46616 0.0 1017364
21:00+12nw46710 0.0 101774
30 june, thu
thu3000:00+11wnw3571100 0.0 101676
03:00+10wnw487652 0.0 1015130
06:00+12nw51074100 0.0 1015296
09:00+17nw71057100 0.0 10131089
12:00+19nnw79495 0.0 10121564
15:00+16nnw61061100 0.0 1012581
18:00+15n5963100 0.4 1013591
21:00+11ne34775 0.4 101570
1 july, fri
fri100:00+9n4107299 0.0 1016240
03:00+7n410821 0.0 1017212
06:00+10n6107511 0.0 1017429
09:00+14nne79598 0.0 10171306
12:00+14nne51062100 0.0 10181675
15:00+16n4857100 0.0 10181364
18:00+16n3568100 0.0 1017245
21:00+14wnw34647 0.0 101862
2 july, sat
sat200:00+11wnw45735 0.0 101760
03:00+10wnw37785 0.0 101797
06:00+13wnw37720 0.0 1017188
09:00+19nw45583 0.0 1016537
12:00+23nw4546100 0.0 10151304
15:00+23nw455220 0.0 10141116
18:00+22wsw366768 0.1 1013343
21:00+15wsw4890100 5.8 1013154